weather.gov     
National Weather Service

Regional Weather Roundup
NWS Homepage
This page is being discontinued on March 12, 2014.
The same data is available at this site. Please update your bookmarks.
Thank you, and we apologize for the inconvenience.
Please send an email to SR-SRH.Webmaster@noaa.gov with any concerns.


Current Version
Previous Version:    01  02  03  04  05  06  07  08  09  
[Printable]
801
ASUS42 KTBW 231010
RWRFL
FLORIDA REGIONAL WEATHER ROUNDUP
NATIONAL WEATHER SERVICE TAMPA BAY RUSKIN FL
600 AM EDT WED APR 23 2014

NOTE: "FAIR" INDICATES FEW OR NO CLOUDS BELOW 12,000 FEET WITH NO
SIGNIFICANT WEATHER AND/OR OBSTRUCTIONS TO VISIBILITY.


FLZ001>010-012>015-112-114-115-231100-
PANHANDLE FLORIDA

CITY           SKY/WX    TMP DP  RH WIND       PRES   REMARKS
PENSACOLA      CLEAR     63  60  90 NW5       29.91R FOG
PENSACOLA NAS  CLEAR     62  62 100 NW5       29.91R FOG
MILTON NAS     CLEAR     62  60  93 NW5       29.91R FOG
CRESTVIEW      FOG       59  57  93 CALM      29.92R VSB 1
DUKE FIELD     FOG       59  59 100 NW1       29.90S VSB 1/2
VALPARAISO     CLEAR     61  61 100 CALM      29.90R FOG
MARY ESTHER    CLEAR     61  57  87 N3        29.89S FOG
PANAMA CITY    CLOUDY    66  63  90 CALM      29.89R FOG
TYNDALL AFB    CLOUDY    67  65  94 W7        29.90R
APALACHICOLA   CLOUDY    68  63  84 N3        29.90R

STATION/POSITION SKY/WX   TEMP    WIND        PRES    WAVE   SWELL
                          AIR SEA DIR/SP/G            HT/PER HT/PER
                          (F)     (DEG/KT/KT) (MB)    (FT/S) (FT/S)
30.1N   87.6W              68 69  360/  6/  8 1012.8R   1
29.2N   88.2W              68 68  280/ 10/ 10 1013.1R
28.8N   86.0W              68 69  270/  6/  8 1013.3R   2/ 4
PANAMA CITY BEAC           67 66  310/  2/  3 1012.2S
CAPE SAN BLAS    NOT AVBL
TOWER C                    67     290/  9/ 10 1012.4R
28.5N   84.5W              68 69  320/ 10/ 12 1012.8R   1/ 3

$$
FLZ011-016>038-118-127-128-134-139-239-231100-
NORTH FLORIDA

CITY           SKY/WX    TMP DP  RH WIND       PRES   REMARKS
MARIANNA       CLEAR     60  60 100 CALM      29.89R
TALLAHASSEE    FOG       61  58  90 CALM      29.90R VSB 1/2
PERRY          MOCLDY    59  59 100 CALM      29.90S FOG
CROSS CITY       N/A     59  58  96 CALM      29.90R
GAINESVILLE    CLEAR     60  59  96 W3        29.89R
MAYPORT NAS    CLEAR     64  61  90 SW5       29.87R
JACKSONVILLE   CLEAR     60  60 100 W6        29.87R
JAX NAS        MOCLDY    64  60  87 W7        29.88S
JAX CRAIG      CLEAR     65  61  87 SW3       29.87S
JAX CECIL      CLOUDY    61  59  94 CALM      29.88S
FERNANDINA BEA FAIR      63  61  94 SW5       29.86R
ST AUGUSTINE   CLEAR     62  60  93 W7        29.88R

STATION/POSITION SKY/WX   TEMP    WIND        PRES    WAVE   SWELL
                          AIR SEA DIR/SP/G            HT/PER HT/PER
                          (F)     (DEG/KT/KT) (MB)    (FT/S) (FT/S)
SHELL POINT                63     270/  6/ 10 1011.3S
KEATON BEACH               66     300/  8/ 10 1012.7R
CEDAR KEY                  67     300/  6/  8 1012.9R
FERNANDINA                 64 66  250/  7/  8 1010.6R
30.7N   81.3W                 65                N/A     2/10   2/11
MAYPORT                    64 65  240/  6/  8   N/A
31.4N   80.9W              65 64  260/ 12/ 14 1010.1R   2/ 9   2/ 9
ST AUGUSTINE               62     280/  9/ 11 1012.2R

$$
FLZ040-043>046-052-053-057-058-063-144-231100-
INTERIOR CENTRAL FLORIDA

CITY           SKY/WX    TMP DP  RH WIND       PRES   REMARKS
OCALA          CLEAR     61  54  77 CALM      29.91S
THE VILLAGES   FOG       57  57 100 CALM      29.90S VSB 1/4
LEESBURG       PTCLDY    64  62  93 NW6       29.91S
SANFORD        PTCLDY    63  62  97 NW6       29.89S
ORLANDO EXEC   MOCLDY    65  62  90 NW6       29.90S
ORLANDO INTL   PTCLDY    64  61  90 W6        29.91R
WINTER HAVEN     N/A    N/A N/A N/A MISG      29.92R
LAKELAND       PTCLDY    61  61 100 CALM      29.91S
BARTOW         FAIR      63  63 100 NW5       29.92R
OKEECHOBEE     CLEAR     55  55 100 CALM      29.91R

$$
FLZ041-047-054-059-064-141-147-231100-
EAST CENTRAL FLORIDA

CITY           SKY/WX    TMP DP  RH WIND       PRES   REMARKS
DAYTONA BEACH  PTCLDY    60  59  96 W5        29.89S FOG
DELAND         SUNNY     61  59  94 W6        29.90F
JFK SPACE CTR  PTCLDY    63  62  95 NW6       29.89R
CAPE CANAVERAL CLEAR     65  62  91 NW8       29.89R
PATRICK AFB    CLEAR     66  63  89 W8        29.90R
MELBOURNE      CLEAR     61  59  93 W6        29.90R
VERO BEACH     CLEAR     60  59  96 W5        29.89R
FT PIERCE      CLEAR     60  58  92 W5        29.89R FOG
STUART         CLEAR     63  61  94 W5        29.90R

STATION/POSITION SKY/WX   TEMP    WIND        PRES    WAVE   SWELL
                          AIR SEA DIR/SP/G            HT/PER HT/PER
                          (F)     (DEG/KT/KT) (MB)    (FT/S) (FT/S)
28.5N   80.2W              68 77  310/ 14/ 16 1011.8R
28.9N   78.5W              75 75  240/ 14/ 16 1011.0R   4/ 9   3/ 9
TRIDENT PIER               66 74  300/  8/ 10 1011.5S
28.4N   80.5W                 71                N/A     2/ 9
27.6N   80.2W                 73                N/A     3/ 9   2/11

$$
FLZ050-056-061-142-242-148-248-149-249-151-251-155-255-
160-260-231100-
WEST CENTRAL FLORIDA

CITY           SKY/WX    TMP DP  RH WIND       PRES   REMARKS
CRYSTAL RIVER  FAIR      61  59  94 CALM      29.90S
INVERNESS      FAIR      55  54  94 CALM      29.91S FOG
BROOKSVILLE    PTCLDY    57  55  93 CALM      29.91S
CLEARWATER     CLEAR     65  60  84 W5        29.91R
TAMPA INTL     PTCLDY    65  61  87 NW5       29.91R
TAMPA EXEC     CLEAR     59  55  88 CALM      29.91S FOG
PLANT CITY     CLEAR     64 N/A N/A W5        29.93R
MACDILL AFB    CLEAR     65  65  99 NW5       29.91R
PETER O KNIGHT CLEAR     68  63  83 CALM      29.91S
ST PETERSBURG  CLEAR     68  63  84 NW6       29.89S
SARASOTA       MOCLDY    67  62  84 NW5       29.90R
VENICE         FAIR      68  61  77 NW8       29.92S

STATION/POSITION SKY/WX   TEMP    WIND        PRES    WAVE   SWELL
                          AIR SEA DIR/SP/G            HT/PER HT/PER
                          (F)     (DEG/KT/KT) (MB)    (FT/S) (FT/S)
CEDAR KEY                  67     300/  6/  8 1012.9R
28.5N   84.5W              68 69  320/ 10/ 12 1012.8R   1/ 3
27.3N   84.3W                 72                N/A     1
CLEARWATER BEACH           69 72  310/  8/ 10 1012.1F
MIDDLE TAMPA BAY           69     320/ 11/ 13 1012.8S
VENICE                     69 73  300/ 11/ 12 1012.5R

$$
FLZ066-069-070-075>078-162-262-165-265-231100-
SOUTHWEST FLORIDA AND KEYS

CITY           SKY/WX    TMP DP  RH WIND       PRES   REMARKS
PUNTA GORDA    CLEAR     63  60  90 NW3       29.93R
FT MYERS       CLEAR     64  61  90 CALM      29.91R
SOUTHWEST INTL CLEAR     60  57  89 CALM      29.91R
NAPLES         CLEAR     65  63  93 CALM      29.90S
MARATHON       PTCLDY    72  65  78 W6        29.91S
KEY WEST NAS   CLEAR     71  64  78 NW7       29.92R
KEY WEST INTL  PTCLDY    72  64  76 NW5       29.92S

STATION/POSITION SKY/WX   TEMP    WIND        PRES    WAVE   SWELL
                          AIR SEA DIR/SP/G            HT/PER HT/PER
                          (F)     (DEG/KT/KT) (MB)    (FT/S) (FT/S)
VENICE                     69 73  300/ 11/ 12 1012.5R
NAPLES                     71 76  330/  9/ 10 1012.8R
26.0N   85.6W              75 80  330/  2/  4 1012.9R   1/ 8   2/ 8
DRY TORTUGAS     NOT AVBL
NW FL BAY                  74     330/ 10/ 12 1012.8F
SOMBRERO KEY               73     330/  5/  7 1013.7R
LONG KEY                   73 78  310/  8/  9 1013.7R
MOLASSES REEF              70 78  360/  8/ 10 1013.1R

$$
FLZ067-068-071>074-168-172>174-231100-
SOUTHEAST FLORIDA

CITY           SKY/WX    TMP DP  RH WIND       PRES   REMARKS
W PALM BEACH   MOCLDY    66  61  84 W6        29.88R
FT LAUDER-EXEC CLEAR     66  62  87 W7        29.89R
FT LAUDERDALE  PTCLDY    67  62  84 W7        29.89R
POMPANO BEACH  CLEAR     67  63  87 W7        29.89S
PEMBROKE PINES CLEAR     66  61  84 W6        29.91R
OPA LOCKA      CLEAR     66  61  84 W7        29.90S
MIAMI          PTCLDY    67  62  84 W6        29.91R
WEST KENDALL   CLEAR     60  60 100 W6        29.91R
HOMESTEAD      CLEAR     65  60  84 NW6       29.91R

STATION/POSITION SKY/WX   TEMP    WIND        PRES    WAVE   SWELL
                          AIR SEA DIR/SP/G            HT/PER HT/PER
                          (F)     (DEG/KT/KT) (MB)    (FT/S) (FT/S)
PORT EVERGLADES            67     270/  7/  9 1012.1
VIRGINIA KEY               70 78  300/  5/  8 1012.4R
LAKE WORTH                 69 78  290/  5/  8 1011.4R
FOWEY ROCKS                70 78  300/ 10/ 11 1012.7R
SETTLEMENT POINT           77     270/  8/  8 1011.9R

$$





U.S. Dept. of Commerce
NOAA National Weather Service
1325 East West Highway
Silver Spring, MD 20910
E-mail: w-nws.webmaster@noaa.gov
Page last modified: May 16, 2007
NATIONAL WEATHER SERVICE: for Safety, for Work, for Fun - FOR LIFE